SAUDICOMSAT 1

Last updated on Fri Jun 19 2026 20:04:31 GMT+0000 (Coordinated Universal Time)

1 28369U 04025D 26170.49110361 .00000270 00000+0 73050-4 0 9997 2 28369 98.5770 180.6846 0032498 18.7342 341.5042 14.55475311164466
UTC large
Height (km)
Speed (km/s)
/
Latitude / Longitude
Inclination (degrees)
Orbital Period (minutes)
Azimuth
Elevation
Range (km)
Doppler Factor

Next 0 passes for location: London (51.5072 / 0.1276)

Sorry there are no passes over London.
SAUDICOMSAT 1